Погода в Пятигорском

Украина / Харьковская область     49°26′28″N   36°36′05″E
темп.,
°C
ветер,
м/с
пор.,
м/с
влажн.,
%
обл.,
%
осадки,
мм/ч
давл.,
гПа
погр.,
м
28 июля, ср
ср2800:00+20ю11470 0.0 101811
03:00+19ююв11500 0.0 101811
06:00+19вюв22540 0.0 101714
09:00+27ююв233960 0.0 1017405
12:00+31ююз453147 0.0 10152563
15:00+33юз452551 0.0 10142916
18:00+31ююз563220 0.0 10131758
21:00+25ююз4951100 0.3 1013200
29 июля, чт
чт2900:00+22ююз1171100 0.1 101315
03:00+21зюз357328 0.4 1013134
06:00+20зюз24793 0.0 101293
09:00+26зюз22563 0.0 1012558
12:00+31юз334037 0.0 10112392
15:00+34зюз552888 0.0 10103256
18:00+31ююв133799 0.0 10091023
21:00+23зюз51274100 0.6 1010267
30 июля, пт
пт3000:00+20юз388817 0.2 1010171
03:00+19ююз3388100 1.3 100956
06:00+19юз4989100 0.0 1010210
09:00+25юз456743 0.0 1009534
12:00+31юз5648100 0.0 10081478
15:00+29зюз4753100 0.1 1008463
18:00+29юз4647100 0.1 1008598
21:00+24з346787 1.6 100878
31 июля, сб
сб3100:00+21ссв228288 0.4 100938
03:00+22с3579100 0.4 1010126
06:00+21ссв23800 0.0 101053
09:00+27ссв33480 0.0 1011713
12:00+31св23323 0.0 10102520
15:00+33в232733 0.0 10102885
18:00+31юв2231100 0.0 1009820
21:00+25юв48481 0.0 1010146
1 августа, вс
вс100:00+22ю34540 0.0 101152
03:00+21ююз22580 0.0 101113
06:00+21ююв22580 0.0 101128
09:00+29ю22380 0.0 1011452
12:00+33юз332966 0.0 10102527
15:00+34ююз332562 0.0 10092965
18:00+33ю4429100 0.0 10081200
21:00+26ююз344544 0.0 100954